Weather in Kargaly

Russia / Tyumen Oblast     57°04′23″N   70°41′14″E
temp.,
°C
wind,
m/s
gust,
m/s
humid.,
%
clouds,
%
prec.,
mm/h
press.,
hPa
HPBL,
m
19 april, mon
mon1923:00−7n711545 0.0 10271257
02:00−9n610535 0.0 10291058
05:00−9n59525 0.0 10311071
08:00−8n5844100 0.0 10321389
11:00−4n6732100 0.0 10321893
14:00−2n6730100 0.0 10322252
17:00−2n5733100 0.0 10322014
20:00−5nne26465 0.0 1033193
20 april, tue
tue2023:00−5n23535 0.0 1033120
02:00−6nw12575 0.0 103350
05:00−7w23595 0.0 103370
08:00−3w45405 0.0 10321038
11:00+1w563019 0.0 10291260
14:00+4w793255 0.0 10261753
17:00+5w61241100 0.0 10231815
20:00+3w51256100 0.0 1022375
21 april, wed
wed2123:00+2w61567100 0.0 1021457
02:00+1nnw41186100 0.0 1022457
05:000nnw49785 0.0 1024567
08:00+1n697063 0.0 1026834
11:00+4n57515 0.0 10281194
14:00+6nne57445 0.0 10291474
17:00+6nne564565 0.0 10311535
20:00+2ene26675 0.0 1034120
22 april, thu
thu2223:00−1se24795 0.0 1036104
02:00−1se22760 0.0 103844
05:00−1se22730 0.0 104040
08:00+2sse23520 0.0 1041668
11:00+6sse234234 0.0 10421209
14:00+7s3338100 0.0 10411417
17:00+8s33385 0.0 10411477
20:00+3sse38580 0.0 1042147
23 april, fri
fri2323:00+1se38630 0.0 1043158
02:000sse39700 0.0 1043175
05:000sse38710 0.0 1043161
08:00+5s46500 0.0 1044456
11:00+8sse45390 0.0 10431317
14:00+10s45340 0.0 10411609
17:00+10sse44352 0.0 10401651
20:00+5se37570 0.0 1041124